Location: ????????
(55.6189°N, 38.3031°E)
Time: 22:26:14
(UTC+00:00)

Cosmos 1825 - Pass Details

Date: 15 November 2019
Orbit: 504 x 508 km, 82.5° (Epoch: 06 December)

Event Time Altitude Azimuth Distance (km) Brightness Sun altitude
Rises 03:19:04 0° 182° (S) 2,597 5.9 -14.0°
Reaches altitude 10° 03:21:11 10° 180° (S) 1,717 5.0 -13.7°
Maximum altitude 03:24:54 65° 99° (E) 560 2.6 -13.2°
Drops below altitude 10° 03:28:40 10° 17° (NNE) 1,732 4.9 -12.7°
Sets 03:30:49 0° 14° (NNE) 2,623 5.8 -12.4°
